GW3611 Weather Reports


time (UTC)temp
F
wind
direction
speed
knots
gust
knots
rain 1hr
in
rain 24hr
in
rain mn
in
humidity
%
barometer
mb
20260505083012 45 145 0.0 0.0 0.00 0.00 0.00 85 1012.8
20260505081531 46 145 0.0 0.0 0.00 0.00 0.00 83 1012.8
20260505080043 47 145 0.0 0.0 0.00 0.00 0.00 83 1012.8
20260505074552 47 145 0.0 0.0 0.00 0.00 0.00 83 1012.6
20260505073059 47 145 0.0 0.0 0.00 0.00 0.00 82 1012.6
20260505071555 47 145 0.0 0.0 0.00 0.00 0.00 82 1012.7
20260505070053 48 145 0.0 0.0 0.00 0.00 0.00 82 1012.5
20260505064637 48 145 0.0 0.0 0.00 0.00 0.00 81 1012.8
20260505063101 49 145 0.0 0.0 0.00 0.00 0.00 80 1012.8
20260505061601 50 146 0.0 0.0 0.00 0.00 0.00 78 1012.9
20260505060059 51 146 0.0 0.0 0.00 0.00 0.00 77 1012.9
20260505054515 52 146 0.0 0.0 0.00 0.00 0.00 76 1013.0
20260505053023 52 146 0.0 0.0 0.00 0.00 0.00 74 1013.0
20260505051542 53 146 0.0 0.0 0.00 0.00 0.00 73 1013.1
20260505041534 53 145 0.0 1.7 0.00 0.00 0.00 74 1013.0
20260505040042 52 145 0.0 0.0 0.00 0.00 0.00 76 1013.1
20260505034610 53 145 0.0 0.0 0.00 0.00 0.00 75 1013.1
20260505033002 54 145 0.0 0.0 0.00 0.00 0.00 72 1013.5
20260505031515 55 145 0.0 0.0 0.00 0.00 0.00 72 1013.7
20260505030049 56 145 0.0 0.0 0.00 0.00 0.00 69 1013.7
20260505024543 57 145 0.0 0.0 0.00 0.00 0.00 68 1013.7
20260505023051 58 145 0.0 0.0 0.00 0.00 0.00 66 1013.6
20260505021547 59 145 0.0 0.0 0.00 0.00 0.00 64 1013.5
20260505020103 60 145 0.0 0.0 0.00 0.00 0.00 62 1013.4
20260505014557 61 145 0.0 0.0 0.00 0.00 0.00 60 1013.2
20260505013017 62 145 0.0 3.5 0.00 0.00 0.00 57 1013.2
20260505011525 63 250 0.0 3.5 0.00 0.00 0.00 56 1012.9
20260505010105 63 186 0.9 4.3 0.00 0.00 0.00 55 1012.7
20260505004617 64 192 1.7 8.7 0.00 0.00 0.00 54 1012.6
20260505003009 64 178 1.7 7.8 0.00 0.00 0.00 53 1012.3
20260505001543 65 190 0.9 7.0 0.00 0.00 0.00 52 1012.2
20260505000110 66 184 0.9 6.1 0.00 0.00 0.00 50 1012.2
20260504234508 67 211 1.7 7.8 0.00 0.00 0.00 49 1012.2
20260504233047 68 151 2.6 7.0 0.00 0.00 0.00 47 1011.8
20260504231619 69 171 4.3 9.6 0.00 0.00 0.00 46 1011.7
20260504230058 70 190 3.5 6.1 0.00 0.00 0.00 44 1011.5
20260504224613 71 168 0.9 5.2 0.00 0.00 0.00 42 1011.5
20260504223009 72 140 0.0 3.5 0.00 0.00 0.00 41 1011.5
20260504221535 72 227 0.0 3.5 0.00 0.00 0.00 42 1011.5
20260504220041 72 82 0.0 1.7 0.00 0.00 0.00 41 1011.5
20260504214551 73 82 0.0 3.5 0.00 0.00 0.00 40 1011.7
20260504213100 73 126 0.0 3.5 0.00 0.00 0.00 38 1011.6
20260504211513 73 96 0.0 3.5 0.00 0.00 0.00 37 1011.8
20260504210014 73 78 0.0 4.3 0.00 0.00 0.00 36 1011.9
20260504204548 74 92 0.0 4.3 0.00 0.00 0.00 34 1011.9
20260504203051 74 80 0.9 4.3 0.00 0.00 0.00 35 1012.1
20260504201547 73 72 0.0 6.1 0.00 0.00 0.00 34 1012.1
20260504200109 74 119 0.9 2.6 0.00 0.00 0.00 36 1012.4
20260504194525 72 84 0.0 4.3 0.00 0.00 0.00 38 1012.7
20260504193100 72 65 0.9 3.5 0.00 0.00 0.00 39 1013.0
20260504191507 73 74 1.7 4.3 0.00 0.00 0.00 36 1013.1
20260504190039 72 175 1.7 5.2 0.00 0.00 0.00 35 1013.4
20260504184601 72 154 0.0 3.5 0.00 0.00 0.00 38 1013.6
20260504183005 72 216 0.9 5.2 0.00 0.00 0.00 35 1013.7
20260504181540 72 18 0.9 4.3 0.00 0.00 0.00 36 1013.8
20260504180056 73 17 0.0 3.5 0.00 0.00 0.00 34 1014.2
20260504174558 73 17 0.0 0.9 0.00 0.00 0.00 34 1014.4
20260504173005 72 29 0.0 2.6 0.00 0.00 0.00 39 1014.5
20260504171512 69 214 0.0 4.3 0.00 0.00 0.00 38 1014.9